Location: Cheching
(60.0667°N, 164.2167°W)
Time: 13:26:46
(UTC+00:00)

STRAND 1 - Pass Details

Date: 17 January 2021
Orbit: 768 x 780 km, 98.4° (Epoch: 04 March)

Event Time Altitude Azimuth Distance (km) Brightness Sun altitude
Rises 18:02:48 0° 191° (S) 3,235 ? -11.1°
Reaches altitude 10° 18:05:18 10° 201° (SSW) 2,314 ? -10.8°
Maximum altitude 18:09:55 34° 266° (W) 1,261 ? -10.3°
Drops below altitude 10° 18:14:36 10° 331° (NNW) 2,334 ? -9.7°
Enters shadow 18:16:28 - 339° (NNW) 3,018 ? -9.5°
